Meath Environmental Platform

Observations for Trim Market St

Time AQI Temp °C Hum % Pres Pa CO μg/m³ H₂S μg/m³ NO μg/m³ NO₂ μg/m³ O₃ μg/m³ SO₂ μg/m³ PM1 μg/m³ PM2.5 μg/m³ PM10 μg/m³
Tuesday 25 August 2026
17:52 3 21.1 60 57,663 0.02 0 1.04 21.7 59.87 0 4.99 6.54 13.03
17:51 3 21.1 60 57,660 0 0 1.1 18.66 61.1 0 5.7 7.53 10.28
17:50 3 21.2 60 57,654 0 0 1.16 21.25 60.9 0 4.28 7.53 10.96
17:49 3 21.2 60 57,647 0.01 0 1.17 18.3 60.77 0 6.41 7.53 10.27
17:48 3 21.2 60 57,640 0 0 1.2 18.6 61.34 0 5.7 7.53 10.27
17:47 3 21.2 60 57,633 0.01 0 1.22 25.32 61.46 0 4.28 7.03 10.96
17:46 3 21.2 60 57,630 0.02 0 1.18 23.86 63.65 0 4.99 8.53 11.65
17:44 3 21.2 60 57,627 0.03 0 1.39 25.33 58.42 0 4.99 7.03 9.59
17:43 3 21.2 60 57,624 0.02 0 1.37 21.26 62.76 0 3.56 6.03 8.21
17:42 3 21.2 60 57,623 0.06 0 1.35 33.37 60.59 0 4.99 7.03 9.59
17:41 3 21.2 60 57,623 0.2 0.91 1.26 61.9 29.95 0 4.28 8.03 11.65
17:40 3 21.2 60 57,631 0.01 0 0.69 22.76 62.42 0 4.28 7.54 11.65
17:39 3 21.3 60 57,634 0.01 0 0.77 23.81 63.51 0 4.28 7.04 10.97
17:38 3 21.3 60 57,639 0.1 0 0.88 27.65 64.44 0 3.56 7.54 10.28
17:36 3 21.3 59 57,651 0 0 1.18 21.96 66.06 0 4.99 8.06 12.36
17:35 3 21.3 59 57,657 0 0 1.29 25.29 70.61 0 4.99 8.06 11.67
17:32 3 21.4 59 57,667 0 0 1.17 21.52 65.55 0 4.99 6.57 8.91
17:27 3 21.5 59 57,670 0 0 0.96 25.15 67.22 0 4.99 8.09 10.99
17:23 3 21.5 59 57,677 0 0.03 1.12 24.78 64.33 0 6.41 10.11 14.46
17:19 3 21.6 58 57,695 0 1.45 1.2 28.11 75.55 0 4.28 6.11 8.22